Alpena, MI

11:02 AM EST on February 14, 2016 (GMT -0500)
Alpena County Regional

Weather History for KAPN - August, 2014

Change the Weather History Date:

Tuesday, August 19, 2014

  Actual Average Record
Temperature  
Mean Temperature 70 °F 65 °F  
Max Temperature 78 °F 77 °F 98 °F (1955)
Min Temperature 61 °F 54 °F 35 °F (1933)
Degree Days  
Heating Degree Days 0 2  
Month to date heating degree days 36 34  
Since 1 June heating degree days 217 221  
Since 1 July heating degree days 105 78  
Cooling Degree Days 5 2  
Month to date cooling degree days 15 56  
Year to date cooling degree days 126 241  
Since 1 June cooling degree days 121 228  
Growing Degree Days 19 (Base 50)    
Moisture  
Dew Point 63 °F    
Average Humidity 82    
Maximum Humidity 100    
Minimum Humidity 64    
Precipitation  
Precipitation 0.15 in 0.11 in 1.56 in (2005)
Month to date precipitation 4.04 1.93  
Year to date precipitation 20.63 17.48  
Sea Level Pressure  
Sea Level Pressure 29.74 in    
Wind  
Wind Speed 8 mph (SSE)    
Max Wind Speed 17 mph    
Max Gust Speed 20 mph    
Visibility 9 miles    
Events Rain    
T = Trace of Precipitation, MM = Missing Value Source: NWS Daily Summary

Daily Weather History Graph

Daily Weather History Graph

Search for Another Location

Airport or City:

Trip Planner

Search our weather history database for the weather conditions in past years. The results will help you decide how hot, cold, wet, or windy it might be!

Date:

Astronomy

Aug. 19, 2014 Rise Set
Actual Time 6:40 AM EDT 8:34 PM EDT
Civil Twilight 6:08 AM EDT 9:05 PM EDT
Nautical Twilight 5:30 AM EDT 9:44 PM EDT
Astronomical Twilight 4:47 AM EDT 10:26 PM EDT
Moon 1:27 AM EDT (8/19) 4:34 PM EDT (8/19)
Length of Visible Light 14h 56m
Length of Day
13h 53m
Waning Crescent, 29% of the Moon is Illuminated
Aug 19
Waning Crescent
Aug 25
New
Sep 2
First Quarter
Sep 8
Full
Sep 15
Last Quarter

Hourly Weather History & Observations

Time (EDT) Temp. Dew Point Humidity Pressure Visibility Wind Dir Wind Speed Gust Speed Precip Events Conditions
12:54 AM 61.0 °F 57.0 °F 87% 29.84 in 10.0 mi SSE 9.2 mph - N/A   Overcast
1:54 AM 61.0 °F 55.9 °F 83% 29.82 in 10.0 mi SSE 10.4 mph - N/A   Overcast
2:54 AM 62.1 °F 57.0 °F 84% 29.79 in 10.0 mi SE 8.1 mph - N/A   Overcast
3:54 AM 62.1 °F 57.9 °F 86% 29.78 in 10.0 mi SE 8.1 mph - N/A   Overcast
4:49 AM 60.8 °F 59.0 °F 94% 29.78 in 2.5 mi SE 5.8 mph - 0.11 in Rain Heavy Rain
4:54 AM 61.0 °F 59.0 °F 93% 29.78 in 4.0 mi SE 4.6 mph - 0.12 in Rain Rain
5:17 AM 61.0 °F 60.1 °F 97% 29.77 in 6.0 mi ESE 5.8 mph - 0.02 in Rain Light Rain
5:54 AM 61.0 °F 60.1 °F 97% 29.76 in 7.0 mi ESE 6.9 mph - 0.03 in Rain Light Rain
6:54 AM 62.1 °F 61.0 °F 96% 29.76 in 9.0 mi SSE 8.1 mph - 0.00 in   Overcast
7:54 AM 63.0 °F 62.1 °F 97% 29.76 in 8.0 mi SSE 9.2 mph - N/A   Overcast
8:28 AM 64.9 °F 62.1 °F 90% 29.75 in 9.0 mi South 11.5 mph - N/A   Overcast
8:54 AM 66.0 °F 63.0 °F 90% 29.75 in 10.0 mi South 10.4 mph - N/A   Mostly Cloudy
9:49 AM 68.0 °F 62.6 °F 83% 29.74 in 10.0 mi South 11.5 mph - N/A   Mostly Cloudy
9:54 AM 68.0 °F 64.0 °F 87% 29.74 in 10.0 mi South 11.5 mph - N/A   Mostly Cloudy
10:54 AM 69.1 °F 64.0 °F 84% 29.75 in 10.0 mi South 8.1 mph - N/A   Overcast
11:54 AM 69.1 °F 64.9 °F 87% 29.74 in 8.0 mi SSE 9.2 mph - N/A   Overcast
12:54 PM 70.0 °F 66.0 °F 87% 29.74 in 8.0 mi South 6.9 mph - N/A   Overcast
1:14 PM 71.1 °F 66.0 °F 84% 29.73 in 9.0 mi South 8.1 mph - N/A   Mostly Cloudy
1:38 PM 70.0 °F 66.0 °F 87% 29.73 in 10.0 mi SE 6.9 mph - N/A   Overcast
1:47 PM 71.1 °F 66.0 °F 84% 29.72 in 9.0 mi SE 8.1 mph - N/A   Overcast
1:54 PM 71.1 °F 66.0 °F 84% 29.73 in 9.0 mi South 8.1 mph - N/A   Overcast
2:54 PM 72.0 °F 66.9 °F 84% 29.72 in 10.0 mi SE 5.8 mph - 0.00 in   Overcast
3:54 PM 73.0 °F 64.9 °F 76% 29.71 in 10.0 mi SSW 4.6 mph - N/A   Overcast
4:05 PM 73.9 °F 66.0 °F 76% 29.72 in 10.0 mi Variable 3.5 mph - N/A   Overcast
4:54 PM 77.0 °F 64.9 °F 66% 29.70 in 10.0 mi South 10.4 mph - N/A   Overcast
5:54 PM 73.9 °F 66.9 °F 79% 29.69 in 10.0 mi ESE 6.9 mph - N/A   Mostly Cloudy
6:13 PM 75.9 °F 64.9 °F 69% 29.69 in 10.0 mi South 11.5 mph - N/A   Mostly Cloudy
6:37 PM 75.9 °F 66.0 °F 71% 29.70 in 10.0 mi SSE 9.2 mph - N/A   Overcast
6:54 PM 75.0 °F 64.9 °F 71% 29.70 in 10.0 mi South 11.5 mph - N/A   Overcast
7:54 PM 73.0 °F 66.0 °F 79% 29.70 in 10.0 mi South 6.9 mph - N/A   Mostly Cloudy
8:54 PM 71.1 °F 66.0 °F 84% 29.71 in 10.0 mi South 10.4 mph - N/A   Mostly Cloudy
9:54 PM 69.1 °F 66.0 °F 90% 29.72 in 10.0 mi South 4.6 mph - N/A   Mostly Cloudy
10:18 PM 70.0 °F 66.0 °F 87% 29.72 in 10.0 mi South 3.5 mph - N/A   Overcast
10:41 PM 66.9 °F 64.9 °F 93% 29.72 in 10.0 mi SSE 5.8 mph - N/A   Scattered Clouds
10:54 PM 66.9 °F 64.9 °F 93% 29.71 in 10.0 mi South 3.5 mph - N/A   Clear
11:44 PM 66.0 °F 64.9 °F 96% 29.72 in 7.0 mi SE 5.8 mph - N/A   Mostly Cloudy
11:54 PM 64.9 °F 64.9 °F 100% 29.72 in 7.0 mi SE 5.8 mph - N/A   Mostly Cloudy